| time (UTC) | temp F | wind direction | speed knots | gust knots | rain 1hr in | rain 24hr in | rain mn in | humidity % | barometer mb |
| 20260504202515 | 72 | 164 | 6.1 | 20.9 | 0.00 | 0.00 | 0.00 | 44 | 996.6 |
| 20260504201531 | 73 | 168 | 7.0 | 15.6 | 0.00 | 0.00 | 0.00 | 43 | 996.6 |
| 20260504200527 | 75 | 179 | 5.2 | 12.2 | 0.00 | 0.00 | 0.00 | 41 | 996.7 |
| 20260504195523 | 75 | 236 | 4.3 | 12.2 | 0.00 | 0.00 | 0.00 | 37 | 996.7 |
| 20260504194519 | 75 | 218 | 6.1 | 15.6 | 0.00 | 0.00 | 0.00 | 38 | 996.7 |
| 20260504193515 | 73 | 227 | 6.1 | 19.1 | 0.00 | 0.00 | 0.00 | 40 | 996.8 |
| 20260504192531 | 73 | 167 | 6.1 | 18.2 | 0.00 | 0.00 | 0.00 | 47 | 997.1 |
| 20260504191527 | 72 | 197 | 5.2 | 9.6 | 0.00 | 0.00 | 0.00 | 50 | 997.1 |
| 20260504190523 | 71 | 192 | 6.1 | 15.6 | 0.00 | 0.00 | 0.00 | 50 | 997.4 |
| 20260504185559 | 71 | 198 | 6.1 | 13.0 | 0.00 | 0.00 | 0.00 | 51 | 997.6 |
| 20260504184515 | 72 | 176 | 4.3 | 11.3 | 0.00 | 0.00 | 0.00 | 52 | 997.7 |
| 20260504183531 | 71 | 185 | 4.3 | 13.0 | 0.00 | 0.00 | 0.00 | 51 | 997.6 |
| 20260504182528 | 72 | 157 | 7.8 | 13.9 | 0.00 | 0.00 | 0.00 | 50 | 997.6 |
| 20260504181523 | 72 | 158 | 7.0 | 15.6 | 0.00 | 0.00 | 0.00 | 51 | 997.8 |
| 20260504180520 | 72 | 159 | 6.1 | 15.6 | 0.00 | 0.00 | 0.00 | 52 | 998.0 |
| 20260504175535 | 72 | 168 | 7.0 | 12.2 | 0.00 | 0.00 | 0.00 | 53 | 998.2 |
| 20260504174531 | 71 | 173 | 5.2 | 13.0 | 0.00 | 0.00 | 0.00 | 53 | 998.5 |
| 20260504173527 | 72 | 171 | 7.0 | 13.9 | 0.00 | 0.00 | 0.00 | 53 | 998.7 |
| 20260504172604 | 71 | 153 | 6.1 | 11.3 | 0.00 | 0.00 | 0.00 | 52 | 998.8 |
| 20260504171520 | 71 | 193 | 7.0 | 13.0 | 0.00 | 0.00 | 0.00 | 53 | 998.8 |
| 20260504170516 | 71 | 197 | 7.0 | 13.0 | 0.00 | 0.00 | 0.00 | 52 | 999.0 |
| 20260504150527 | 66 | 240 | 2.6 | 11.3 | 0.00 | 0.00 | 0.00 | 54 | 1000.1 |
| 20260504140544 | 61 | 238 | 1.7 | 6.1 | 0.00 | 0.00 | 0.00 | 60 | 1000.4 |
| 20260504130520 | 57 | 250 | 4.3 | 13.9 | 0.00 | 0.00 | 0.00 | 63 | 1001.0 |
| 20260504110532 | 50 | 245 | 2.6 | 6.1 | 0.00 | 0.00 | 0.00 | 69 | 1001.3 |
| 20260504100527 | 50 | 224 | 1.7 | 6.1 | 0.00 | 0.00 | 0.00 | 67 | 1000.9 |
| 20260504081523 | 50 | 206 | 1.7 | 6.1 | 0.00 | 0.00 | 0.00 | 65 | 1001.5 |
| 20260504080519 | 51 | 217 | 2.6 | 7.0 | 0.00 | 0.00 | 0.00 | 65 | 1001.6 |
| 20260504050548 | 53 | 228 | 3.5 | 9.6 | 0.00 | 0.00 | 0.00 | 65 | 1004.0 |
| 20260504045544 | 53 | 191 | 3.5 | 7.8 | 0.00 | 0.00 | 0.00 | 65 | 1004.1 |
| 20260504044540 | 53 | 208 | 4.3 | 12.2 | 0.00 | 0.00 | 0.00 | 65 | 1004.1 |
| 20260504043516 | 53 | 192 | 4.3 | 12.2 | 0.00 | 0.00 | 0.00 | 65 | 1004.2 |
| 20260504042532 | 53 | 187 | 4.3 | 9.6 | 0.00 | 0.00 | 0.00 | 64 | 1004.3 |
| 20260504041528 | 53 | 202 | 2.6 | 9.6 | 0.00 | 0.00 | 0.00 | 63 | 1004.4 |
| 20260504040524 | 53 | 212 | 3.5 | 11.3 | 0.00 | 0.00 | 0.00 | 62 | 1004.4 |
| 20260504035520 | 54 | 198 | 3.5 | 7.8 | 0.00 | 0.00 | 0.00 | 60 | 1004.6 |
| 20260504034516 | 54 | 211 | 3.5 | 8.7 | 0.00 | 0.00 | 0.00 | 59 | 1004.5 |
| 20260504033532 | 54 | 194 | 4.3 | 9.6 | 0.00 | 0.00 | 0.00 | 59 | 1004.7 |
| 20260504032528 | 54 | 193 | 2.6 | 7.0 | 0.00 | 0.00 | 0.00 | 58 | 1004.9 |
| 20260504031543 | 54 | 224 | 3.5 | 8.7 | 0.00 | 0.00 | 0.00 | 57 | 1004.9 |
| 20260504030540 | 54 | 211 | 2.6 | 5.2 | 0.00 | 0.00 | 0.00 | 57 | 1005.0 |
| 20260504025556 | 55 | 200 | 2.6 | 7.8 | 0.00 | 0.00 | 0.00 | 57 | 1005.1 |
| 20260504024532 | 55 | 215 | 4.3 | 8.7 | 0.00 | 0.00 | 0.00 | 57 | 1005.3 |
| 20260504023548 | 55 | 216 | 3.5 | 8.7 | 0.00 | 0.00 | 0.00 | 56 | 1005.3 |
| 20260504022524 | 55 | 222 | 3.5 | 8.7 | 0.00 | 0.00 | 0.00 | 56 | 1005.3 |
| 20260504021520 | 55 | 212 | 4.3 | 12.2 | 0.00 | 0.00 | 0.00 | 55 | 1005.3 |
| 20260504020516 | 55 | 224 | 2.6 | 6.1 | 0.00 | 0.00 | 0.00 | 54 | 1005.3 |
| 20260504015532 | 56 | 234 | 4.3 | 13.0 | 0.00 | 0.00 | 0.00 | 54 | 1005.4 |
| 20260504014548 | 56 | 226 | 4.3 | 9.6 | 0.00 | 0.00 | 0.00 | 53 | 1005.3 |
| 20260504013523 | 57 | 237 | 5.2 | 9.6 | 0.00 | 0.00 | 0.00 | 52 | 1005.2 |
| 20260504012519 | 57 | 240 | 6.1 | 13.9 | 0.00 | 0.00 | 0.00 | 51 | 1005.2 |
| 20260504011535 | 58 | 239 | 6.1 | 9.6 | 0.00 | 0.00 | 0.00 | 51 | 1005.1 |
| 20260504010531 | 58 | 244 | 7.0 | 14.8 | 0.00 | 0.00 | 0.00 | 50 | 1005.2 |
| 20260504005527 | 59 | 258 | 8.7 | 18.2 | 0.00 | 0.00 | 0.00 | 49 | 1004.9 |
| 20260504004543 | 60 | 250 | 8.7 | 16.5 | 0.00 | 0.00 | 0.00 | 47 | 1004.8 |
| 20260504003519 | 60 | 238 | 7.0 | 16.5 | 0.00 | 0.00 | 0.00 | 45 | 1004.6 |
| 20260504002535 | 60 | 247 | 6.1 | 13.9 | 0.00 | 0.00 | 0.00 | 44 | 1004.4 |
| 20260504001531 | 60 | 249 | 6.1 | 16.5 | 0.00 | 0.00 | 0.00 | 44 | 1004.3 |
| 20260504000526 | 60 | 245 | 7.8 | 19.1 | 0.00 | 0.00 | 0.00 | 44 | 1004.3 |
| 20260503235522 | 61 | 251 | 7.0 | 13.9 | 0.00 | 0.00 | 0.00 | 43 | 1004.2 |
| 20260503234518 | 61 | 242 | 7.0 | 20.9 | 0.00 | 0.00 | 0.00 | 43 | 1004.3 |
| 20260503233534 | 61 | 243 | 5.2 | 11.3 | 0.00 | 0.00 | 0.00 | 43 | 1004.2 |
| 20260503232530 | 61 | 244 | 5.2 | 11.3 | 0.00 | 0.00 | 0.00 | 42 | 1004.4 |
| 20260503231526 | 62 | 241 | 4.3 | 14.8 | 0.00 | 0.00 | 0.00 | 41 | 1004.5 |
| 20260503230521 | 63 | 258 | 7.8 | 14.8 | 0.00 | 0.00 | 0.00 | 40 | 1004.3 |
| 20260503225518 | 63 | 247 | 7.8 | 15.6 | 0.00 | 0.00 | 0.00 | 39 | 1004.3 |
| 20260503224534 | 63 | 254 | 5.2 | 12.2 | 0.00 | 0.00 | 0.00 | 40 | 1004.6 |
| 20260503223530 | 63 | 237 | 8.7 | 15.6 | 0.00 | 0.00 | 0.00 | 40 | 1004.7 |
| 20260503222526 | 63 | 245 | 5.2 | 12.2 | 0.00 | 0.00 | 0.00 | 40 | 1004.9 |
| 20260503221601 | 63 | 242 | 7.0 | 16.5 | 0.00 | 0.00 | 0.00 | 40 | 1004.9 |
| 20260503220537 | 63 | 256 | 7.8 | 21.7 | 0.00 | 0.00 | 0.00 | 40 | 1004.8 |
| 20260503215553 | 63 | 238 | 7.0 | 13.9 | 0.00 | 0.00 | 0.00 | 40 | 1004.9 |
| 20260503214529 | 63 | 261 | 9.6 | 19.1 | 0.00 | 0.00 | 0.00 | 39 | 1004.8 |
| 20260503213525 | 63 | 252 | 6.1 | 12.2 | 0.00 | 0.00 | 0.00 | 39 | 1004.8 |
| 20260503212521 | 63 | 246 | 7.8 | 14.8 | 0.00 | 0.00 | 0.00 | 39 | 1005.0 |
| 20260503211517 | 63 | 248 | 8.7 | 19.1 | 0.00 | 0.00 | 0.00 | 39 | 1004.8 |
| 20260503210552 | 63 | 240 | 6.1 | 16.5 | 0.00 | 0.00 | 0.00 | 39 | 1004.8 |
| 20260503205528 | 63 | 239 | 6.1 | 13.0 | 0.00 | 0.00 | 0.00 | 38 | 1004.9 |
| 20260503204524 | 63 | 225 | 7.0 | 15.6 | 0.00 | 0.00 | 0.00 | 38 | 1004.8 |
| 20260503203520 | 64 | 248 | 10.4 | 20.9 | 0.00 | 0.00 | 0.00 | 37 | 1005.1 |